When you browse on this site, cookies collect data to enhance your experience and personalize the content and advertising you see.
Visit our Privacy Policy to learn more. By continuing to use the site, you agree to this use of cookies and data.
  • In Deutschland
  • Länderverzeichnis
  • Für 7 Tage
  • Wassertemperatur
  • Wetterkarte
  • Widgets
  • user-avatar
    Anmelden

    Stündliche Wetter Novaya Bashkarka

    Heute, 17 Oktober, Donnerstag

    Zeit Temperatur Niederschläge Wind Luftdruck Luftfeuchtigkeit
    00:00 -2°C° 0 mm 4 m/S 744 mmHg 81%
    01:00 -3°C° 0 mm 4 m/S 744 mmHg 82%
    02:00 -3°C° 0 mm 4 m/S 745 mmHg 81%
    03:00 -2°C° 0 mm 3 m/S 745 mmHg 81%
    04:00 -2°C° 0 mm 3 m/S 746 mmHg 83%
    05:00 -2°C° 0 mm 3 m/S 746 mmHg 82%
    06:00 -2°C° 0 mm 3 m/S 746 mmHg 80%
    07:00 -3°C° 0 mm 4 m/S 746 mmHg 79%
    08:00 -2°C° 0 mm 4 m/S 746 mmHg 76%
    09:00 -2°C° 0 mm 4 m/S 746 mmHg 72%
    10:00 -1°C° 0 mm 4 m/S 747 mmHg 68%
    11:00 -1°C° 0 mm 4 m/S 747 mmHg 67%
    12:00 0°C° 0 mm 3 m/S 747 mmHg 66%
    13:00 +1°C° 0 mm 3 m/S 746 mmHg 65%
    14:00 0°C° 0 mm 3 m/S 747 mmHg 66%
    15:00 +1°C° 0 mm 2 m/S 747 mmHg 68%
    16:00 +1°C° 0 mm 2 m/S 747 mmHg 69%
    17:00 +1°C° 0 mm 2 m/S 746 mmHg 72%
    18:00 -1°C° 0 mm 2 m/S 746 mmHg 76%
    19:00 +1°C° 0 mm 1 m/S 746 mmHg 79%
    20:00 +1°C° 0.2 mm 1 m/S 745 mmHg 85%
    21:00 +1°C° 0.2 mm 1 m/S 745 mmHg 91%
    22:00 +1°C° 0.2 mm 1 m/S 745 mmHg 96%
    23:00 -1°C° 0.2 mm 2 m/S 744 mmHg 96%

    Morgen, 18 Oktober, Freitag

    Zeit Temperatur Niederschläge Wind Luftdruck Luftfeuchtigkeit
    00:00 -1°C° 0.2 mm 2 m/S 744 mmHg 97%
    01:00 -1°C° 0.2 mm 2 m/S 743 mmHg 97%
    02:00 -1°C° 0.4 mm 2 m/S 742 mmHg 97%
    03:00 -1°C° 0.4 mm 2 m/S 742 mmHg 97%
    04:00 -1°C° 0.4 mm 2 m/S 742 mmHg 97%
    05:00 -1°C° 0.2 mm 2 m/S 741 mmHg 97%
    06:00 -1°C° 0.2 mm 2 m/S 741 mmHg 97%
    07:00 -1°C° 0.2 mm 2 m/S 740 mmHg 97%
    08:00 -1°C° 0.3 mm 3 m/S 740 mmHg 97%
    09:00 -1°C° 0.3 mm 3 m/S 740 mmHg 96%
    10:00 0°C° 0.3 mm 3 m/S 740 mmHg 96%
    11:00 0°C° 0.1 mm 3 m/S 740 mmHg 96%
    12:00 0°C° 0.1 mm 3 m/S 740 mmHg 96%
    13:00 -1°C° 0.1 mm 4 m/S 740 mmHg 96%
    14:00 -2°C° 0.2 mm 4 m/S 741 mmHg 96%
    15:00 -2°C° 0.2 mm 4 m/S 741 mmHg 96%
    16:00 -2°C° 0.2 mm 4 m/S 741 mmHg 96%
    17:00 -2°C° 0.1 mm 4 m/S 742 mmHg 95%
    18:00 -3°C° 0.1 mm 4 m/S 742 mmHg 95%
    19:00 -3°C° 0.1 mm 4 m/S 743 mmHg 94%
    20:00 -3°C° 0 mm 4 m/S 743 mmHg 92%
    21:00 -4°C° 0 mm 4 m/S 744 mmHg 91%
    22:00 -4°C° 0 mm 4 m/S 745 mmHg 89%
    23:00 -5°C° 0 mm 4 m/S 745 mmHg 89%

    übermorgen, 19 Oktober, Samstag

    Zeit Temperatur Niederschläge Wind Luftdruck Luftfeuchtigkeit
    00:00 -5°C° 0 mm 3 m/S 745 mmHg 89%
    01:00 -6°C° 0 mm 3 m/S 746 mmHg 89%
    02:00 -7°C° 0 mm 3 m/S 746 mmHg 90%
    03:00 -6°C° 0 mm 2 m/S 747 mmHg 91%
    04:00 -7°C° 0 mm 2 m/S 748 mmHg 92%
    05:00 -7°C° 0 mm 2 m/S 748 mmHg 91%
    06:00 -7°C° 0 mm 2 m/S 748 mmHg 91%
    07:00 -7°C° 0 mm 2 m/S 749 mmHg 91%
    08:00 -6°C° 0 mm 2 m/S 749 mmHg 84%
    09:00 -6°C° 0 mm 3 m/S 750 mmHg 78%
    10:00 -4°C° 0 mm 3 m/S 750 mmHg 71%
    11:00 -4°C° 0 mm 3 m/S 750 mmHg 69%
    12:00 -2°C° 0 mm 2 m/S 750 mmHg 66%
    13:00 -2°C° 0 mm 2 m/S 751 mmHg 64%
    14:00 -2°C° 0 mm 2 m/S 751 mmHg 67%
    15:00 -3°C° 0 mm 2 m/S 751 mmHg 71%
    16:00 -1°C° 0 mm 1 m/S 751 mmHg 74%
    17:00 -2°C° 0 mm 1 m/S 751 mmHg 77%
    18:00 -3°C° 0 mm 1 m/S 752 mmHg 81%
    19:00 -4°C° 0 mm 1 m/S 752 mmHg 84%
    20:00 -4°C° 0 mm 1 m/S 752 mmHg 85%
    21:00 -4°C° 0 mm 1 m/S 752 mmHg 86%
    22:00 -4°C° 0 mm 1 m/S 753 mmHg 87%
    23:00 -4°C° 0 mm 1 m/S 753 mmHg 88%

    20 Oktober, Sonntag

    Zeit Temperatur Niederschläge Wind Luftdruck Luftfeuchtigkeit
    00:00 -6°C° 0 mm 1 m/S 753 mmHg 89%
    01:00 -6°C° 0 mm 1 m/S 753 mmHg 90%
    02:00 -6°C° 0 mm 1 m/S 753 mmHg 91%
    03:00 -7°C° 0 mm 2 m/S 753 mmHg 92%
    04:00 -7°C° 0 mm 2 m/S 753 mmHg 93%
    05:00 -7°C° 0 mm 2 m/S 753 mmHg 93%
    06:00 -7°C° 0 mm 2 m/S 753 mmHg 93%
    07:00 -7°C° 0 mm 2 m/S 753 mmHg 93%
    08:00 -5°C° 0 mm 2 m/S 753 mmHg 86%
    09:00 -5°C° 0 mm 3 m/S 753 mmHg 79%
    10:00 -2°C° 0 mm 3 m/S 753 mmHg 72%
    11:00 -2°C° 0 mm 3 m/S 752 mmHg 72%
    12:00 -2°C° 0 mm 4 m/S 752 mmHg 72%
    13:00 -1°C° 0 mm 4 m/S 751 mmHg 71%
    14:00 0°C° 0 mm 3 m/S 751 mmHg 75%
    15:00 0°C° 0 mm 3 m/S 751 mmHg 79%
    16:00 +1°C° 0 mm 2 m/S 751 mmHg 83%
    17:00 0°C° 0 mm 3 m/S 750 mmHg 85%
    18:00 0°C° 0 mm 3 m/S 750 mmHg 86%
    19:00 0°C° 0 mm 3 m/S 750 mmHg 88%
    20:00 0°C° 0 mm 3 m/S 750 mmHg 89%
    21:00 0°C° 0 mm 3 m/S 749 mmHg 89%
    22:00 -1°C° 0 mm 4 m/S 749 mmHg 90%
    23:00 0°C° 0 mm 4 m/S 749 mmHg 90%

    21 Oktober, Montag

    Zeit Temperatur Niederschläge Wind Luftdruck Luftfeuchtigkeit
    00:00 0°C° 0 mm 4 m/S 748 mmHg 89%
    01:00 0°C° 0 mm 4 m/S 748 mmHg 89%
    02:00 0°C° 0 mm 4 m/S 747 mmHg 89%
    03:00 0°C° 0 mm 4 m/S 747 mmHg 89%
    04:00 0°C° 0 mm 4 m/S 746 mmHg 88%
    05:00 +1°C° 0.2 mm 5 m/S 745 mmHg 88%
    06:00 +1°C° 0.2 mm 5 m/S 745 mmHg 89%
    07:00 +1°C° 0.2 mm 5 m/S 744 mmHg 89%
    08:00 +1°C° 0.2 mm 5 m/S 744 mmHg 89%
    09:00 +2°C° 0.2 mm 5 m/S 744 mmHg 89%
    10:00 +2°C° 0.2 mm 5 m/S 743 mmHg 89%
    11:00 +3°C° 0 mm 5 m/S 743 mmHg 90%
    12:00 +3°C° 0 mm 5 m/S 743 mmHg 90%
    13:00 +4°C° 0 mm 4 m/S 743 mmHg 91%
    14:00 +4°C° 0.2 mm 4 m/S 743 mmHg 92%
    15:00 +4°C° 0.2 mm 4 m/S 742 mmHg 93%
    16:00 +4°C° 0.2 mm 4 m/S 742 mmHg 94%
    17:00 +4°C° 0.3 mm 4 m/S 742 mmHg 95%
    18:00 +4°C° 0.3 mm 4 m/S 742 mmHg 95%
    19:00 +4°C° 0.3 mm 3 m/S 742 mmHg 95%
    20:00 +4°C° 0.1 mm 3 m/S 742 mmHg 95%
    21:00 +4°C° 0.1 mm 3 m/S 741 mmHg 95%
    22:00 +4°C° 0.1 mm 3 m/S 741 mmHg 95%
    23:00 +4°C° 0.2 mm 3 m/S 740 mmHg 95%

    22 Oktober, Dienstag

    Zeit Temperatur Niederschläge Wind Luftdruck Luftfeuchtigkeit
    00:00 +4°C° 0.2 mm 4 m/S 740 mmHg 95%
    01:00 +4°C° 0.2 mm 4 m/S 739 mmHg 95%
    02:00 +5°C° 0.6 mm 4 m/S 738 mmHg 95%
    03:00 +5°C° 0.6 mm 4 m/S 737 mmHg 94%
    04:00 +6°C° 0.6 mm 5 m/S 736 mmHg 93%
    05:00 +6°C° 1 mm 5 m/S 735 mmHg 92%
    06:00 +7°C° 1 mm 6 m/S 735 mmHg 91%
    07:00 +7°C° 1 mm 6 m/S 734 mmHg 90%
    08:00 +8°C° 0.1 mm 6 m/S 734 mmHg 89%
    09:00 +8°C° 0.1 mm 6 m/S 734 mmHg 87%
    10:00 +8°C° 0.1 mm 5 m/S 734 mmHg 85%
    11:00 +8°C° 0 mm 5 m/S 734 mmHg 83%
    12:00 +9°C° 0 mm 5 m/S 735 mmHg 80%
    13:00 +9°C° 0 mm 5 m/S 735 mmHg 78%
    14:00 +8°C° 0 mm 5 m/S 735 mmHg 79%
    15:00 +8°C° 0 mm 4 m/S 736 mmHg 81%
    16:00 +8°C° 0 mm 3 m/S 736 mmHg 83%
    17:00 +7°C° 0 mm 3 m/S 736 mmHg 84%
    18:00 +7°C° 0 mm 3 m/S 737 mmHg 86%
    19:00 +5°C° 0 mm 3 m/S 737 mmHg 87%
    20:00 +4°C° 0 mm 3 m/S 737 mmHg 89%
    21:00 +4°C° 0 mm 2 m/S 737 mmHg 91%
    22:00 +3°C° 0 mm 2 m/S 737 mmHg 92%
    23:00 +3°C° 0 mm 2 m/S 737 mmHg 92%
    Mehr zeigen